星链-34864 (STARLINK-34864)

导读 | 豆包AI

STARLINK-34864是美国SpaceX公司星链(Starlink)星座的卫星,于2025年8月27日发射。作为低轨通信卫星,它采用平板设计与太阳能供电,搭载Ku/Ka波段通信载荷,依托霍尔推进器实现轨道调控,具备自主避撞能力。其核心任务是补充星链星座规模,为全球提供高速宽带互联网服务,服役末期将主动离轨再入大气层焚毁,减少空间碎片影响。

Basic Information
目录编号:
65330
目录名称:
STARLINK-34864
国际标识:
2025-189H
轨道中心:
EARTH
卫星名称:
星链-34864
卫星全名:
星链-34864 (STARLINK-34864)
卫星状态:
在轨 (已飞行199 天)
发射日期:
2025-08-27 UTC
国别 :
美国 (US)
星等 :
--
Orbit Information
数据来源 国际轨道数据 AOE轨道数据
星历时间 2026-03-14T01:04:50+0800
20小时前
查看轨道信息
2026-03-11T08:00:00+0800
3天前
查看轨道信息
半长轴 6853.293km 6853.365km
偏心率 0.0001473 0.0001338
轨道倾角 53.160° 53.156°
近地点辐角 9.823° 57.503°
升交点赤经 187.986° 200.582°
平近点角 350.280° 116.396°
近地点 474.146km 474.311km
远地点 476.166km 476.145km
周期 94.104分钟 94.106分钟
每日圈数 15.302201 15.301958
Detailed Information
固有亮度:
5
最大亮度:
2.5
卫星平台:
Starlink V1.0
覆盖范围:
全球
运营商:
太空探索技术公司
运营商所在国:
美国
制造商(研发单位):
太空探索技术公司
制造商所在国:
美国
使用方式:
暂无
Satellite Introduction
Starlink 计划是 SpaceX 推出的全球卫星互联网项目,通过发射低轨道卫星,为全球尤其是偏远地区提供高速、低延迟的互联网服务。自 2019 年起,Starlink 已部署数千颗卫星,旨在缩小全球数字鸿沟,推动互联网普及。该项目还为军事、航空等行业提供通信支持,带来广泛经济效益。
2D Orbit Map
3D Orbit Map
Orbit Altitude Analysis Chart
Orbit Inclination Analysis Chart
Orbit Comprehensive Analysis Chart
View Comprehensive Chart